Weather History for Mather AFB, CA

Change the Weather History Date:

Wednesday, November 6, 2013

  Actual Average Record
Temperature  
Mean Temperature 56 °F -  
Max Temperature 71 °F 62 °F 77 °F (2012)
Min Temperature 42 °F 41 °F 33 °F (1996)
Degree Days  
Heating Degree Days 8    
Growing Degree Days 6 (Base 50)    
Moisture  
Dew Point 36 °F    
Average Humidity 50    
Maximum Humidity 94    
Minimum Humidity 22    
Precipitation  
Precipitation 0.00 in - - ()
Sea Level Pressure  
Sea Level Pressure 30.23 in    
Wind  
Wind Speed 2 mph (North)    
Max Wind Speed 6 mph    
Max Gust Speed -    
Visibility 10 miles    
Events      
Averages and records for this station are not official NWS values.
T = Trace of Precipitation, MM = Missing Value Source: NWS Daily Summary

Daily Weather History Graph

Daily Weather History Graph

Search for Another Location

Airport:

Trip Planner

Search our weather history database for the weather conditions in past years. The results will help you decide how hot, cold, wet, or windy it might be!

Date:

Astronomy

Nov. 06, 2013 Rise Set
Actual Time 6:37 AM PST 4:59 PM PST
Civil Twilight 6:09 AM PST 5:27 PM PST
Nautical Twilight 5:38 AM PST 5:58 PM PST
Astronomical Twilight 5:07 AM PST 6:30 PM PST
Moon 9:56 AM PST (11/6) 8:10 PM PST (11/6)
Length of Visible Light 11h 17m
Length of Day
10h 21m
Waxing Crescent, 14% of the Moon is Illuminated
Nov 6
Waxing Crescent
Nov 9
First Quarter
Nov 17
Full
Nov 25
Last Quarter
Dec 2
New

Hourly Weather History & Observations

Time (PST) Temp. Windchill Dew Point Humidity Pressure Visibility Wind Dir Wind Speed Gust Speed Precip Events Conditions
12:50 AM 46.4 °F 45.2 °F 30.2 °F 53% 30.24 in 10.0 mi NE 3.5 mph - N/A   Partly Cloudy
1:45 AM 46.4 °F - 32.0 °F 57% 30.24 in 10.0 mi Calm Calm - N/A   Partly Cloudy
2:45 AM 46.4 °F 45.2 °F 35.6 °F 66% 30.24 in 10.0 mi East 3.5 mph - N/A   Partly Cloudy
3:50 AM 46.4 °F - 33.8 °F 62% 30.24 in 10.0 mi Calm Calm - N/A   Partly Cloudy
4:45 AM 44.6 °F 41.4 °F 32.0 °F 61% 30.24 in 10.0 mi ENE 5.8 mph - N/A   Partly Cloudy
5:45 AM 42.8 °F - 32.0 °F 66% 30.25 in 10.0 mi Calm Calm - N/A   Partly Cloudy
6:46 AM 44.6 °F - 35.6 °F 71% 30.25 in 8.0 mi Calm Calm - N/A   Partly Cloudy
7:46 AM 48.2 °F - 37.4 °F 66% 30.27 in 10.0 mi Calm Calm - N/A   Partly Cloudy
8:49 AM 53.6 °F - 37.4 °F 54% 30.28 in 10.0 mi Calm Calm - N/A   Scattered Clouds
9:46 AM 59.0 °F - 35.6 °F 42% 30.28 in 10.0 mi WSW 4.6 mph - N/A   Scattered Clouds
10:46 AM 64.4 °F - 35.6 °F 34% 30.28 in 10.0 mi WNW 3.5 mph - N/A   Scattered Clouds
11:46 AM 66.2 °F - 33.8 °F 30% 30.26 in 10.0 mi Calm Calm - N/A   Scattered Clouds
12:45 PM 68.0 °F - 35.6 °F 30% 30.24 in 10.0 mi Calm Calm - N/A   Scattered Clouds
1:50 PM 71.6 °F - 69.8 °F 94% 30.21 in 10.0 mi Calm Calm - N/A   Scattered Clouds
3:46 PM 71.6 °F - 30.2 °F 22% 30.19 in 10.0 mi WNW 3.5 mph - N/A   Mostly Cloudy
4:45 PM 69.8 °F - 30.2 °F 23% 30.19 in 10.0 mi Calm Calm - N/A   Mostly Cloudy
5:45 PM 62.6 °F - 32.0 °F 32% 30.20 in 10.0 mi Calm Calm - N/A   Mostly Cloudy
6:45 PM 57.2 °F - 32.0 °F 38% 30.20 in 10.0 mi Calm Calm - N/A   Mostly Cloudy
8:45 PM 57.2 °F - 35.6 °F 44% 30.19 in 10.0 mi Calm Calm - N/A   Mostly Cloudy
10:45 PM 50.0 °F - 35.6 °F 58% 30.19 in 10.0 mi Calm Calm - N/A   Mostly Cloudy